www.pogodaiklimat.ru

Погода и климат >> Архив погоды >> Россия >> Краснодарский край >> Анапа


АРХИВ ПОГОДЫ в Анапе

Время (UTC), дата Ветер
(напр.,м/с)
 
Видим.   Явления Облачность Т
(С)
Тd
(С)
f
(%)
Тe
(С)
Тes
(С)
Комфортность P
(гПа)
Po
(гПа)
Тmin
(С)
Tmax
(С)
R
(мм)
R24
(мм)
S
(см)
18 19.04 Ю 1 10 км {ливн. осадки} 10/10 300 м
[Cb cap]
+13.0 +11.4 90 +13 +13 тепло 1010.9 1007.0
21 19.04 штиль 0 10 км слабый ливневой дождь 10/10 300 м
[Cb cap]
+11.3 +9.2 87 +11 +11 тепло 1010.0 1006.0
00 20.04 СЗ 1 4000 м дымка {ливн. осадки} 10/10 300 м
[Cb cap]
+10.8 +9.8 94 +10 +10 по сезону 1008.1 1004.1
03 20.04 СЗ 3 10 км 8/6 600 м
[Cb cap Ac trans]
+10.9 +8.2 83 +9 +9 по сезону 1008.0 1004.0 +10.7 6
06 20.04 С 3 10 км 10/10 600 м
[Cb cap]
+11.2 +7.7 79 +9 +9 по сезону 1008.7 1004.7
09 20.04 СЗ 4 10 км слабый ливневой дождь 10/10 600 м
[Cb cap]
+11.0 +7.7 80 +9 +9 по сезону 1010.0 1006.0
12 20.04 СЗ 2 10 км {ливн. осадки} 6/6 600 м
[Sc]
+14.5 +6.8 60 +14 +19 тепло 1010.9 1007.0
15 20.04 С 2 10 км {ливн. осадки} 9/9 600 м
[Sc]
+11.6 +6.6 71 +11 +11 по сезону 1012.2 1008.3 +14.7
18 20.04 СЗ 2 10 км {ливн. осадки} 3/0
[Ci fib]
+11.9 +7.6 75 +11 +11 по сезону 1013.6 1009.7
21 20.04 С 2 10 км 3/0
[Ac trans]
+10.6 +7.0 78 +9 +9 по сезону 1014.3 1010.3
00 21.04 СВ 2 10 км ясно +9.4 +7.3 87 +8 +8 по сезону 1014.3 1010.3
03 21.04 СВ 1 10 км ясно +8.6 +6.9 89 +8 +8 по сезону 1015.1 1011.1 +8.5
06 21.04 С 2 10 км 3/3 600 м
[Cu hum]
+13.7 +8.6 71 +13 +18 тепло 1016.2 1012.2
09 21.04 С 2 20 км 5/5 600 м
[Cu hum]
+15.8 +5.5 50 +16 +24 тепло 1016.3 1012.4
12 21.04 СЗ 3 20 км 1/1 600 м
[Cu hum]
+16.7 +3.8 42 +17 +25 тепло 1015.7 1011.8
15 21.04 СЗ 2 20 км ясно +15.1 +5.5 53 +15 +16 тепло 1015.5 1011.5 +17.3
18 21.04 ЮЗ 6 10 км ясно +12.8 +9.4 80 +10 +10 по сезону 1015.4 1011.4
21 21.04 ЮЗ 6 10 км ясно +12.7 +9.5 81 +10 +10 по сезону 1014.8 1010.8
00 22.04 ЮЗ 8-11
{12}
10 км ясно +12.4 +9.9 85 +9 +9 по сезону 1013.2 1009.2
03 22.04 ЮЗ 10-13
{13}
10 км 3/0
[Ci sp]
+12.4 +9.6 83 +9 +9 по сезону 1012.1 1008.1 +12.3
06 22.04 Ю 11-15
{15}
20 км 9/0
[Ac cast]
+13.0 +9.5 79 +10 +10 по сезону 1011.4 1007.4
09 22.04 Ю 11-15
{15}
20 км 8/0
[Ac cast]
+13.3 +9.8 79 +10 +10 по сезону 1011.5 1007.6
12 22.04 Ю 11-14
{15}
10 км 8/1 600 м
[Cb cap Ac cast Ci sp]
+13.7 +10.2 79 +11 +11 по сезону 1011.1 1007.1
15 22.04 Ю 10-12
{15}
10 км 8/3 600 м
[Sc Ac cast]
+13.0 +10.5 85 +10 +10 по сезону 1011.3 1007.3 +13.8
18 22.04 Ю 8-12
{13}
10 км 6/1 600 м
[Sc Ac trans]
+12.3 +10.5 89 +9 +9 по сезону 1012.4 1008.4
21 22.04 ЮВ 3
{12}
10 км ясно +11.9 +8.5 80 +10 +10 по сезону 1012.9 1008.9
00 23.04 ЮВ 2 10 км ясно +11.4 +7.4 76 +10 +10 по сезону 1013.0 1009.0
03 23.04 Ю 9-14
{14}
4000 м дымка 8/0
[Ci sp]
+11.9 +10.5 91 +8 +8 по сезону 1012.5 1008.5 +11.4
06 23.04 Ю 8-11
{14}
10 км 9/3 600 м
[Sc Ac trans Ci fib]
+13.1 +10.2 83 +10 +11 по сезону 1013.4 1009.4
09 23.04 Ю 9-12
{14}
10 км 8/0
[Ci fib]
+14.4 +10.9 79 +12 +13 по сезону 1013.8 1009.8
12 23.04 Ю 7
{12}
10 км 3/3 600 м
[Cu hum]
+15.1 +11.4 79 +13 +15 по сезону 1014.2 1010.3
15 23.04 Ю 3 10 км ясно +14.5 +11.4 82 +14 +15 тепло 1015.0 1011.0 +15.4
18 23.04 ЮВ 1 10 км ясно +12.3 +10.2 87 +12 +12 тепло 1016.5 1012.5
21 23.04 СВ 1 10 км ясно +9.7 +8.1 90 +9 +9 по сезону 1016.9 1012.9
00 24.04 СВ 1 4000 м дымка ясно +8.5 +7.6 94 +8 +8 по сезону 1017.6 1013.6
03 24.04 В 1 10 км ясно +8.3 +6.6 89 +7 +8 по сезону 1018.4 1014.4 +7.5
06 24.04 Ю 5 10 км 1/0
[Ci fib]
+13.5 +10.8 84 +12 +16 по сезону 1019.7 1015.7
09 24.04 Ю 6 10 км 1/0
[Ci fib]
+14.8 +11.4 80 +13 +19 по сезону 1020.3 1016.3
12 24.04 Ю 6 10 км ясно +15.1 +11.9 81 +13 +18 по сезону 1020.0 1016.0
15 24.04 Ю 4 1000 м дымка 6/0
[Ci fib]
+12.9 +12.0 94 +11 +12 по сезону 1018.9 1014.9 +15.5
18 24.04 Ю 5 4000 м дымка {туман} ясно +12.6 +10.8 89 +10 +10 по сезону 1018.6 1014.6
21 24.04 Ю 7 10 км ясно +13.3 +8.4 72 +11 +11 тепло 1017.5 1013.5
00 25.04 Ю 8-10
{10}
10 км 4/0
[Ci sp]
+13.1 +10.6 85 +10 +10 по сезону 1016.9 1013.0
03 25.04 Ю 7-10
{10}
10 км 5/0
[Ac trans Ci fib]
+13.2 +10.5 84 +11 +11 по сезону 1017.2 1013.2 +12.2
06 25.04 Ю 9-11
{11}
20 км 8/0
[Ac trans Ci sp]
+13.8 +11.7 87 +11 +11 по сезону 1018.3 1014.3
09 25.04 Ю 8-11
{13}
20 км 9/0
[Ac trans Ci sp]
+15.3 +11.9 80 +13 +15 по сезону 1018.5 1014.6
12 25.04 Ю 8
{11}
20 км 8/0
[Ac trans Ci sp]
+16.1 +11.5 74 +14 +16 по сезону 1018.0 1014.1
15 25.04 Ю 7 20 км 5/0
[Ac trans Ci sp]
+14.9 +11.4 80 +13 +13 тепло 1016.8 1012.9 +16.5
18 25.04 Ю 4 10 км 3/0
[Ci sp]
+14.0 +9.4 74 +13 +13 тепло 1017.1 1013.1
21 25.04 Ю 3 10 км 3/0
[Ci sp]
+13.4 +8.0 70 +12 +12 тепло 1017.1 1013.2
00 26.04 Ю 2 10 км ясно +13.6 +8.2 70 +13 +13 тепло 1016.5 1012.5
03 26.04 Ю 2 10 км 3/0
[Ci fib]
+14.0 +7.6 65 +14 +14 тепло 1016.4 1012.4 +13.3
06 26.04 Ю 4 20 км ясно +15.4 +8.7 64 +14 +20 тепло 1017.0 1013.1
09 26.04 Ю 6 20 км ясно +16.8 +12.3 75 +16 +22 тепло 1017.3 1013.4
12 26.04 Ю 4 10 км ясно +17.7 +12.8 73 +17 +25 тепло 1016.3 1012.3
15 26.04 Ю 3 20 км ясно +17.5 +8.3 55 +18 +19 тепло 1015.1 1011.2 +18.2

 

Местоположение метеостанции Анапа (Краснодарский край, Россия): широта 44.88 долгота 37.28 высота над уровнем моря 32 м.

В архиве по умолчанию представлена погода в Анапе за последнюю неделю. Архивные данные за месяц целиком и за предыдущие месяцы, начиная с января 2011 года, Вы можете получить, выбрав интересующий диапазон дат из раскрывающегося списка и нажав кнопку "Ввод!".


*Определитесь, кто Вы:
робот инопланетянин человек

Внимание! Время в таблицах - всемирное. Для получения местного времени необходимо прибавить поправку, которая в Анапе равна 3 ч.

Смотрите также архив погоды в соседних городах и на ближайших метеорологических станциях:

Погода в Новороссийске (Краснодарский край, Россия) (48 км)
Погода в Темрюке (Краснодарский край, Россия) (50 км)
Погода в Крымске (Краснодарский край, Россия) (57 км)
Погода в Тамани (Краснодарский край, Россия) (58 км)
Погода в Геленджике (Краснодарский край, Россия) (72 км)
Погода в Опасном (Крым, Россия) (75 км)
Погода в Славянске-на-Кубани (Краснодарский край, Россия) (80 км)
Погода в Керчи (Крым, Россия) (86 км)
Погода в Джубге (Краснодарский край, Россия) (129 км)
Погода на Мысовом (Крым, Россия) (131 км)

Пояснения к столбцам:

Ветер - указаны скорость ветра в м/с - средняя за 10 мин, порывы в срок и между сроками (в фигурных скобках) и направление, откуда дует ветер: С - северный, СВ - северо-восточный, В - восточный, ЮВ - юго-восточный, Ю - южный, ЮЗ - юго-западный, З - западный, СЗ - северо-западный.
Видимость - горизонтальная дальность видимости в метрах или километрах. При видимости от 1 до 10 км при отсутствии осадков обычно наблюдается дымка, при ухудшении видимости до 1 км и менее - туман. В сухую погоду видимость может ухудшаться дымом, пылью или мглою.
Явления - указаны атмосферные явления, наблюдавшиеся в срок или в последний час перед сроком; фигурными скобками обозначены явления, наблюдавшиеся между сроками (за 1-3 часа до срока); квадратными скобками обозначены град или гололедные отложения с указанием их диаметра в мм.
Облачность - указаны через наклонную черту общая и нижняя облачность в баллах и высота нижней границы облаков в метрах; квадратными скобками обозначены формы облаков: Ci - перистые, Cs - перисто-слоистые, Cc - перисто-кучевые, Ac - высококучевые, As - высокослоистые, Sc - слоисто-кучевые, Ns - слоисто-дождевые, Cu - кучевые, Cb - кучево-дождевые. Подробнее классификацию облаков см. в Атласе облаков (PDF).
T - Температура воздуха - температура, измеренная на высоте 2 м над землей.
Td - Температура точки росы - температура, при понижении до которой содержащийся в воздухе водяной пар достигнет насыщения.
f - Относительная влажность воздуха - влажноcть воздуха, измеренная на высоте 2 м над землей.
Te - Эффективная температура - температура, которую ощущает одетый по сезону человек в тени. Характеристика душности погоды. При расчете учитывается влияние влажности воздуха и скорости ветра на теплоощущения человека.
Tes - Эффективная температура на солнце - температура, которую ощущает человек, с поправкой на солнечный нагрев. Характеристика знойности погоды. Зависит от высоты солнца над горизонтом, облачности и скорости ветра. Ночью, в пасмурную погоду, а также при ветре 12 м/с и более поправка равна нулю.
P - Атмосферное давление - приведенное к уровню моря атмосферное давление.
Po - Атмосферное давление - измеренное на уровне метеостанции атмосферное давление.
Tmin - Минимальная температура - минимум температуры воздуха на высоте 2 м над землей.
Tmax - Максимальная температура - максимум температуры воздуха на высоте 2 м над землей.
R - Количество осадков - Количество выпавших осадков за период времени, мм. При наведении курсора мыши на число - период времени, за который выпало указанное количество осадков.
R24 - Количество осадков - Количество выпавших осадков за 24 часа, мм.
S - Снежный покров - Высота снежного покрова, см. При наведении курсора мыши на число - состояние снежного покрова и степень покрытия местности в баллах.